Weather History for KM40 - October, 2013

Change the Weather History Date:

Friday, October 11, 2013

  Actual Average (KCBM) Record (KCBM)
Temperature  
Mean Temperature 72 °F -  
Max Temperature 89 °F 75 °F 89 °F (1997)
Min Temperature 55 °F 52 °F 33 °F (2000)
Cooling Degree Days 7    
Growing Degree Days 22 (Base 50)    
Moisture  
Dew Point 53 °F    
Average Humidity 55    
Maximum Humidity 59    
Minimum Humidity 52    
Precipitation  
Precipitation 0.00 in - - ()
Sea Level Pressure  
Sea Level Pressure 30.04 in    
Wind  
Wind Speed 1 mph (SW)    
Max Wind Speed 6 mph    
Max Gust Speed -    
Visibility 5 miles    
Events      
Averages and records for this station are not official NWS values.
T = Trace of Precipitation, MM = Missing Value Source: NWS Daily Summary

Daily Weather History Graph

Daily Weather History Graph

Search for Another Location

Airport or City:

Trip Planner

Search our weather history database for the weather conditions in past years. The results will help you decide how hot, cold, wet, or windy it might be!

Date:

Astronomy

Oct. 11, 2013 Rise Set
Actual Time 6:56 AM CDT 6:24 PM CDT
Civil Twilight 6:30 AM CDT 6:49 PM CDT
Nautical Twilight 6:01 AM CDT 7:18 PM CDT
Astronomical Twilight 5:33 AM CDT 7:47 PM CDT
Moon 1:29 PM CDT (10/11) No Moon Set
Length of Visible Light 12h 18m
Length of Day
11h 28m
Waxing Crescent, 47% of the Moon is Illuminated
Oct 11
Waxing Crescent
Oct 11
First Quarter
Oct 18
Full
Oct 26
Last Quarter
Nov 3
New

Hourly Weather History & Observations

Time (CDT) Temp. Heat Index Dew Point Humidity Pressure Visibility Wind Dir Wind Speed Gust Speed Precip Events Conditions
12:15 AM 59.0 °F - 42.8 °F 55% 30.04 in 1.0 mi Calm Calm - N/A   Haze
12:35 AM 57.2 °F - 42.8 °F 59% 30.04 in 0.8 mi Calm Calm - N/A   Haze
12:55 AM 57.2 °F - 42.8 °F 59% 30.04 in 2.5 mi Calm Calm - N/A   Haze
1:15 AM 57.2 °F - 41.0 °F 55% 30.04 in 0.2 mi Calm Calm - N/A   Haze
1:55 AM 57.2 °F - 41.0 °F 55% 30.04 in 1.0 mi Calm Calm - N/A   Haze
2:15 AM 55.4 °F - 39.2 °F 54% 30.04 in 1.8 mi Calm Calm - N/A   Haze
2:35 AM 57.2 °F - 41.0 °F 55% 30.04 in 2.0 mi Calm Calm - N/A   Haze
2:55 AM 55.4 °F - 39.2 °F 54% 30.04 in 2.0 mi Calm Calm - N/A   Haze
3:15 AM 55.4 °F - 39.2 °F 54% 30.03 in 3.0 mi Calm Calm - N/A   Haze
3:35 AM 55.4 °F - 39.2 °F 54% 30.03 in 5.0 mi Calm Calm - N/A   Haze
3:55 AM 55.4 °F - 39.2 °F 54% 30.04 in 0.5 mi Calm Calm - N/A   Haze
4:15 AM 55.4 °F - 39.2 °F 54% 30.04 in 3.0 mi Calm Calm - N/A   Haze
4:35 AM 55.4 °F - 39.2 °F 54% 30.04 in 4.0 mi Calm Calm - N/A   Haze
4:55 AM 55.4 °F - 39.2 °F 54% 30.05 in 3.0 mi Calm Calm - N/A   Haze
5:15 AM 55.4 °F - 39.2 °F 54% 30.05 in 5.0 mi Calm Calm - N/A   Haze
5:35 AM 55.4 °F - 39.2 °F 54% 30.06 in 4.0 mi Calm Calm - N/A   Haze
5:55 AM 55.4 °F - 39.2 °F 54% 30.06 in 3.0 mi Calm Calm - N/A   Haze
6:15 AM 55.4 °F - 39.2 °F 54% 30.06 in 0.8 mi Calm Calm - N/A   Haze
6:35 AM 55.4 °F - 39.2 °F 54% 30.07 in 6.0 mi Calm Calm - N/A   Haze
6:55 AM 55.4 °F - 39.2 °F 54% 30.08 in 3.0 mi Calm Calm - N/A   Haze
7:15 AM 55.4 °F - 39.2 °F 54% 30.08 in 3.0 mi Calm Calm - N/A   Haze
7:35 AM 55.4 °F - 39.2 °F 54% 30.08 in 3.0 mi Calm Calm - N/A   Haze
7:55 AM 59.0 °F - 42.8 °F 55% 30.09 in 4.0 mi Calm Calm - N/A   Haze
8:15 AM 60.8 °F - 44.6 °F 55% 30.09 in 4.0 mi Calm Calm - N/A   Haze
8:35 AM 62.6 °F - 46.4 °F 55% 30.10 in 5.0 mi Calm Calm - N/A   Haze
8:55 AM 64.4 °F - 48.2 °F 56% 30.10 in 7.0 mi Calm Calm - N/A   Mostly Cloudy
9:15 AM 66.2 °F - 50.0 °F 56% 30.10 in 7.0 mi Calm Calm - N/A   Scattered Clouds
9:35 AM 69.8 °F - 51.8 °F 53% 30.10 in 7.0 mi Calm Calm - N/A   Partly Cloudy
9:55 AM 73.4 °F - 55.4 °F 53% 30.10 in 7.0 mi South 3.5 mph - N/A   Clear
10:15 AM 75.2 °F - 59.0 °F 57% 30.10 in 8.0 mi South 4.6 mph - N/A   Clear
10:35 AM 78.8 °F - 60.8 °F 54% 30.09 in 8.0 mi South 4.6 mph - N/A   Clear
10:55 AM 80.6 °F 81.8 °F 62.6 °F 54% 30.09 in 8.0 mi SW 3.5 mph - N/A   Clear
11:15 AM 82.4 °F 83.9 °F 64.4 °F 54% 30.09 in 8.0 mi Calm Calm - N/A   Clear
11:35 AM 84.2 °F 86.6 °F 66.2 °F 55% 30.09 in 9.0 mi NNW 3.5 mph - N/A   Clear
11:55 AM 84.2 °F 86.6 °F 66.2 °F 55% 30.09 in 9.0 mi WSW 3.5 mph - N/A   Clear
12:15 PM 86.0 °F 89.4 °F 68.0 °F 55% 30.08 in 8.0 mi West 3.5 mph - N/A   Clear
12:35 PM 84.2 °F 87.3 °F 68.0 °F 58% 30.07 in 8.0 mi West 3.5 mph - N/A   Partly Cloudy
12:55 PM 87.8 °F 92.6 °F 69.8 °F 55% 30.06 in 9.0 mi West 4.6 mph - N/A   Scattered Clouds
1:15 PM 87.8 °F 92.6 °F 69.8 °F 55% 30.05 in 8.0 mi WSW 5.8 mph - N/A   Clear
1:35 PM 89.6 °F 96.2 °F 71.6 °F 55% 30.04 in 8.0 mi Calm Calm - N/A   Clear
1:55 PM 89.6 °F 96.2 °F 71.6 °F 55% 30.03 in 9.0 mi WSW 3.5 mph - N/A   Scattered Clouds
2:15 PM 87.8 °F 93.8 °F 71.6 °F 58% 30.03 in 8.0 mi SW 3.5 mph - N/A   Partly Cloudy
2:35 PM 89.6 °F 96.2 °F 71.6 °F 55% 30.02 in 9.0 mi West 4.6 mph - N/A   Clear
2:55 PM 87.8 °F 93.8 °F 71.6 °F 58% 30.02 in 9.0 mi SW 3.5 mph - N/A   Clear
3:15 PM 87.8 °F 92.6 °F 69.8 °F 55% 30.01 in 9.0 mi Calm Calm - N/A   Clear
3:35 PM 84.2 °F 87.3 °F 68.0 °F 58% 30.01 in 9.0 mi Calm Calm - N/A   Clear
3:55 PM 87.8 °F 93.8 °F 71.6 °F 58% 30.01 in 9.0 mi Calm Calm - N/A   Clear
4:15 PM 87.8 °F 93.8 °F 71.6 °F 58% 30.01 in 8.0 mi East 3.5 mph - N/A   Clear
4:35 PM 87.8 °F 92.6 °F 69.8 °F 55% 30.00 in 8.0 mi SSE 3.5 mph - N/A   Clear
4:55 PM 86.0 °F 90.4 °F 69.8 °F 58% 30.00 in 8.0 mi South 3.5 mph - N/A   Clear
5:15 PM 86.0 °F 89.4 °F 68.0 °F 55% 30.00 in 8.0 mi Calm Calm - N/A   Clear
5:35 PM 84.2 °F 86.6 °F 66.2 °F 55% 30.00 in 8.0 mi Calm Calm - N/A   Clear
5:55 PM 82.4 °F 83.9 °F 64.4 °F 54% 30.00 in 9.0 mi Calm Calm - N/A   Clear
6:15 PM 78.8 °F - 60.8 °F 54% 30.00 in 8.0 mi Calm Calm - N/A   Clear
6:35 PM 73.4 °F - 57.2 °F 57% 30.00 in 7.0 mi Calm Calm - N/A   Clear
6:55 PM 69.8 °F - 53.6 °F 56% 30.01 in 8.0 mi Calm Calm - N/A   Clear
7:15 PM 68.0 °F - 51.8 °F 56% 30.01 in 7.0 mi Calm Calm - N/A   Clear
7:35 PM 66.2 °F - 50.0 °F 56% 30.01 in 5.0 mi Calm Calm - N/A   Haze
7:55 PM 66.2 °F - 50.0 °F 56% 30.01 in 4.0 mi Calm Calm - N/A   Haze
8:15 PM 64.4 °F - 48.2 °F 56% 30.01 in 3.0 mi Calm Calm - N/A   Haze
8:35 PM 64.4 °F - 48.2 °F 56% 30.02 in 0.2 mi Calm Calm - N/A   Haze
8:55 PM 64.4 °F - 48.2 °F 56% 30.02 in 0.2 mi Calm Calm - N/A   Haze
9:15 PM 64.4 °F - 46.4 °F 52% 30.02 in 0.2 mi Calm Calm - N/A   Haze
9:35 PM 62.6 °F - 46.4 °F 55% 30.02 in 1.8 mi Calm Calm - N/A   Haze
9:55 PM 62.6 °F - 46.4 °F 55% 30.02 in 2.5 mi Calm Calm - N/A   Haze
10:15 PM 62.6 °F - 46.4 °F 55% 30.02 in 0.8 mi Calm Calm - N/A   Haze
10:35 PM 62.6 °F - 46.4 °F 55% 30.02 in 1.5 mi Calm Calm - N/A   Haze
10:55 PM 60.8 °F - 44.6 °F 55% 30.02 in 0.2 mi Calm Calm - N/A   Haze
11:15 PM 60.8 °F - 44.6 °F 55% 30.02 in 3.0 mi Calm Calm - N/A   Haze
11:35 PM 60.8 °F - 44.6 °F 55% 30.02 in 0.5 mi Calm Calm - N/A   Haze
11:55 PM 60.8 °F - 44.6 °F 55% 30.02 in 0.5 mi Calm Calm - N/A   Haze